Simultaneous Nadir Overpasses (SNOs) Predictions

Prediction of SNOs between AQUA and METOP-B Satellite Orbit:

Table of predicted SNOs for the next 14.0 days since TLE Epoch: 7/5/2019
Index Date (AQUA) Time (AQUA) Lat,Lon (AQUA) SZA (AQUA ) Date (METOP-B) Time (METOP-B) Lat,Lon (METOP-B) SZA (METOP-B ) Distance(km) Time Diff (sec)
1 07/06/2019 20:52:09 -73.81, 41.25 128.79 07/06/2019 20:51:09 -73.79, 41.20 128.79 2.61 60
2 07/06/2019 21:41:37 73.87,-151.24 51.28 07/06/2019 21:41:47 73.89,-151.25 51.30 1.80 10
3 07/06/2019 22:31:11 -74.27, 15.48 128.28 07/06/2019 22:32:21 -74.27, 17.02 128.36 46.37 70
4 07/09/2019 16:26:24 -73.84, 107.62 128.44 07/09/2019 16:25:31 -73.82, 107.66 128.45 3.21 53
5 07/09/2019 17:15:52 73.91, -84.88 51.64 07/09/2019 17:16:09 73.91, -84.78 51.64 3.11 17
6 07/09/2019 18:05:32 -74.61, 81.11 127.59 07/09/2019 18:06:37 -74.58, 84.25 127.75 92.86 65
7 07/12/2019 12:00:37 -73.83, 174.09 128.08 07/12/2019 11:59:52 -73.84, 174.12 128.06 1.46 45
8 07/12/2019 12:50:05 73.90, -18.42 52.00 07/12/2019 12:50:31 73.88, -18.44 51.98 1.84 26
9 07/15/2019 07:34:51 -73.82,-119.46 127.67 07/15/2019 07:34:15 -73.81,-119.54 127.67 2.95 36
10 07/15/2019 08:24:19 73.89, 48.03 52.42 07/15/2019 08:24:53 73.90, 48.01 52.42 1.01 34
11 07/18/2019 03:09:05 -73.82, -53.02 127.20 07/18/2019 03:08:37 -73.83, -53.09 127.19 2.22 28
12 07/18/2019 03:58:33 73.90, 114.46 52.89 07/18/2019 03:59:15 73.92, 114.47 52.91 2.71 42




NCC Satellite Simultaneous Nadir Overpasses (SNOs) Prediction Service
